DW7628 Weather Reports


Display with metric or nautical units.
time (UTC)temp
F
wind
direction
speed
MPH
gust
MPH
rain 1hr
in
rain 24hr
in
rain mn
in
humidity
%
barometer
mb
20260831193805 79 8 0.0 0.0 0.00 0.00 0.00 63 1012.0
20260831192805 79 81 0.0 0.0 0.00 0.00 0.00 63 1011.7
20260831192307 79 76 0.0 0.0 0.00 0.00 0.00 64 1011.7
20260831191805 79 3 0.0 0.0 0.00 0.00 0.00 65 1011.7
20260831191306 80 22 0.0 0.0 0.00 0.00 0.00 64 1011.7
20260831190806 80 16 0.0 0.0 0.00 0.00 0.00 62 1011.6
20260831190306 80 94 0.0 0.0 0.00 0.00 0.00 62 1011.4
20260831185807 80 14 0.0 0.0 0.00 0.00 0.00 61 1011.4
20260831185306 81 236 0.0 0.0 0.00 0.00 0.00 61 1011.3
20260831184806 81 102 0.0 0.0 0.00 0.00 0.00 59 1011.2
20260831184305 81 175 0.0 0.0 0.00 0.00 0.00 57 1011.1
20260831183806 82 217 0.0 0.0 0.00 0.00 0.00 59 1011.0
20260831183305 82 233 0.0 0.0 0.00 0.00 0.00 58 1011.0
20260831182806 82 133 0.0 0.0 0.00 0.00 0.00 57 1010.9
20260831182306 82 198 0.0 0.0 0.00 0.00 0.00 56 1011.0
20260831181307 83 24 0.0 0.0 0.00 0.00 0.00 56 1010.9
20260831180805 83 10 0.0 0.0 0.00 0.00 0.00 54 1010.9
20260831175805 84 208 0.0 0.0 0.00 0.00 0.00 56 1010.8
20260831175306 84 193 0.0 0.0 0.00 0.00 0.00 55 1010.8
20260831174805 85 129 0.0 0.0 0.00 0.00 0.00 54 1010.8
20260831174305 85 44 0.0 0.0 0.00 0.00 0.00 52 1010.7
20260831173805 86 9 0.0 0.0 0.00 0.00 0.00 51 1010.6
20260831173305 86 83 0.0 0.0 0.00 0.00 0.00 49 1010.8
20260831172806 87 24 0.0 0.0 0.00 0.00 0.00 48 1010.7
20260831171805 87 34 0.0 0.0 0.00 0.00 0.00 46 1010.7
20260831171305 88 13 0.0 0.0 0.00 0.00 0.00 45 1010.7
20260831170806 88 126 0.0 0.0 0.00 0.00 0.00 45 1010.7
20260831165306 89 311 0.0 0.0 0.00 0.00 0.00 44 1010.8
20260831164806 89 46 0.0 0.0 0.00 0.00 0.00 44 1010.7
20260831163306 90 279 0.0 0.0 0.00 0.00 0.00 44 1010.6
20260831162806 90 39 0.0 0.0 0.00 0.00 0.00 44 1010.7
20260831162306 90 50 0.0 0.0 0.00 0.00 0.00 44 1010.6
20260831161807 91 48 0.0 0.0 0.00 0.00 0.00 43 1010.6
20260831161305 91 85 0.0 0.0 0.00 0.00 0.00 42 1010.6
20260831160305 92 45 0.0 0.0 0.00 0.00 0.00 42 1010.5
20260831155806 92 89 0.0 0.0 0.00 0.00 0.00 42 1010.4
20260831155306 92 126 0.0 0.0 0.00 0.00 0.00 41 1010.4
20260831154805 92 42 0.0 0.0 0.00 0.00 0.00 41 1010.4
20260831153806 93 42 0.0 0.0 0.00 0.00 0.00 40 1010.4
20260831152806 94 23 0.0 0.0 0.00 0.00 0.00 39 1010.3
20260831152306 94 41 0.0 0.0 0.00 0.00 0.00 38 1010.3
20260831151806 95 47 0.0 0.0 0.00 0.00 0.00 38 1010.3
20260831151305 95 111 0.0 0.0 0.00 0.00 0.00 38 1010.3
20260831150305 95 40 0.0 0.0 0.00 0.00 0.00 37 1010.2
20260831145805 96 21 0.0 0.0 0.00 0.00 0.00 36 1010.3
20260831145306 96 84 0.0 0.0 0.00 0.00 0.00 36 1010.3
20260831144805 97 149 0.0 0.0 0.00 0.00 0.00 35 1010.2
20260831144306 98 32 0.0 0.0 0.00 0.00 0.00 34 1010.2
20260831143805 98 31 0.0 0.0 0.00 0.00 0.00 34 1010.2
20260831143306 98 22 0.0 0.0 0.00 0.00 0.00 34 1010.2
20260831142805 98 22 0.0 0.0 0.00 0.00 0.00 34 1010.3
20260831142306 98 30 0.0 0.0 0.00 0.00 0.00 33 1010.3
20260831141305 99 36 0.0 0.0 0.00 0.00 0.00 32 1010.3
20260831140305 99 28 0.0 0.0 0.00 0.00 0.00 31 1010.3
20260831135805 99 134 0.0 0.0 0.00 0.00 0.00 30 1010.3
20260831135306 100 160 0.0 0.0 0.00 0.00 0.00 29 1010.4
20260831134805 100 245 0.0 0.0 0.00 0.00 0.00 29 1010.4
20260831134305 100 196 0.0 0.0 0.00 0.00 0.00 29 1010.5
20260831133805 100 281 0.0 0.0 0.00 0.00 0.00 28 1010.4
20260831133305 100 74 0.0 0.0 0.00 0.00 0.00 29 1010.4
20260831132805 100 187 0.0 0.0 0.00 0.00 0.00 28 1010.5
20260831132307 100 158 0.0 0.0 0.00 0.00 0.00 28 1010.5
20260831131805 100 224 0.0 0.0 0.00 0.00 0.00 28 1010.5
20260831131305 100 172 0.0 0.0 0.00 0.00 0.00 27 1010.5
20260831130805 100 303 0.0 0.0 0.00 0.00 0.00 28 1010.6
20260831125806 100 161 0.0 0.0 0.00 0.00 0.00 28 1010.6
20260831124805 99 27 0.0 0.0 0.00 0.00 0.00 27 1010.7
20260831124305 99 195 0.0 0.0 0.00 0.00 0.00 27 1010.7
20260831123806 99 260 0.0 0.0 0.00 0.00 0.00 28 1010.7
20260831123305 98 116 0.0 0.0 0.00 0.00 0.00 28 1010.8
20260831122805 99 281 0.0 0.0 0.00 0.00 0.00 28 1011.0
20260831122306 99 277 0.0 0.0 0.00 0.00 0.00 28 1011.0
20260831121805 99 329 0.0 0.0 0.00 0.00 0.00 28 1010.9
20260831121304 99 217 0.0 0.0 0.00 0.00 0.00 29 1011.1
20260831120805 98 171 0.0 0.0 0.00 0.00 0.00 29 1011.1
20260831120305 99 273 0.0 0.0 0.00 0.00 0.00 29 1011.2
20260831115805 99 168 0.0 0.0 0.00 0.00 0.00 28 1011.2
20260831114805 98 187 0.0 0.0 0.00 0.00 0.00 29 1011.3
20260831114304 98 51 0.0 0.0 0.00 0.00 0.00 29 1011.3
20260831113805 97 236 0.0 0.0 0.00 0.00 0.00 29 1011.4
20260831113305 98 25 0.0 0.0 0.00 0.00 0.00 28 1011.5
20260831112805 97 197 0.0 0.0 0.00 0.00 0.00 29 1011.5
20260831112307 97 12 0.0 0.0 0.00 0.00 0.00 30 1011.6
20260831111805 97 230 0.0 0.0 0.00 0.00 0.00 30 1011.7
20260831111305 97 289 0.0 0.0 0.00 0.00 0.00 30 1011.8
20260831110805 97 327 0.0 0.0 0.00 0.00 0.00 29 1011.8
20260831110306 97 147 0.0 0.0 0.00 0.00 0.00 30 1011.9
20260831105804 97 126 0.0 0.0 0.00 0.00 0.00 30 1011.9
20260831105306 97 62 0.0 0.0 0.00 0.00 0.00 29 1012.0
20260831104805 97 212 0.0 0.0 0.00 0.00 0.00 29 1012.0
20260831103806 97 267 0.0 0.0 0.00 0.00 0.00 28 1012.2
20260831103305 97 35 0.0 0.0 0.00 0.00 0.00 28 1012.2
20260831102306 97 85 0.0 0.0 0.00 0.00 0.00 28 1012.2
20260831101805 96 4 0.0 0.0 0.00 0.00 0.00 28 1012.2
20260831101305 96 236 0.0 0.0 0.00 0.00 0.00 29 1012.3
20260831100305 95 207 0.0 0.0 0.00 0.00 0.00 30 1012.3
20260831095306 94 286 0.0 0.0 0.00 0.00 0.00 34 1012.4
20260831094804 94 228 0.0 0.0 0.00 0.00 0.00 36 1012.4
20260831093806 93 42 0.0 0.0 0.00 0.00 0.00 31 1012.3
20260831093305 93 27 0.0 0.0 0.00 0.00 0.00 32 1012.4
20260831092806 92 159 0.0 0.0 0.00 0.00 0.00 37 1012.4
20260831092306 92 274 0.0 0.0 0.00 0.00 0.00 37 1012.4
20260831091805 92 153 0.0 0.0 0.00 0.00 0.00 37 1012.5
20260831090805 91 130 0.0 0.0 0.00 0.00 0.00 40 1012.4
20260831090304 91 332 0.0 0.0 0.00 0.00 0.00 40 1012.4
20260831085804 91 169 0.0 0.0 0.00 0.00 0.00 40 1012.3
20260831085306 91 162 0.0 0.0 0.00 0.00 0.00 42 1012.3
20260831084804 90 140 0.0 0.0 0.00 0.00 0.00 42 1012.3
20260831083805 89 80 0.0 0.0 0.00 0.00 0.00 45 1012.4
20260831083305 88 171 0.0 0.0 0.00 0.00 0.00 45 1012.4
20260831082307 89 137 0.0 0.0 0.00 0.00 0.00 45 1012.4
20260831081304 88 78 0.0 0.0 0.00 0.00 0.00 46 1012.3
20260831080804 88 85 0.0 0.0 0.00 0.00 0.00 46 1012.3
20260831075306 88 168 0.0 0.0 0.00 0.00 0.00 43 1012.2
20260831074305 87 346 0.0 0.0 0.00 0.00 0.00 45 1012.2
20260831073805 86 179 0.0 0.0 0.00 0.00 0.00 47 1012.2
20260831073305 86 143 0.0 0.0 0.00 0.00 0.00 47 1012.2
20260831072807 85 99 0.0 0.0 0.00 0.00 0.00 47 1012.1
20260831072306 86 45 0.0 0.0 0.00 0.00 0.00 47 1012.2
20260831071805 86 45 0.0 0.0 0.00 0.00 0.00 46 1012.2
20260831071306 86 10 0.0 0.0 0.00 0.00 0.00 45 1012.1
20260831070805 85 15 0.0 0.0 0.00 0.00 0.00 45 1012.1
20260831065804 85 108 0.0 0.0 0.00 0.00 0.00 45 1012.1
20260831065306 85 13 0.0 0.0 0.00 0.00 0.00 44 1012.0
20260831064806 85 23 0.0 0.0 0.00 0.00 0.00 43 1012.0
20260831064304 84 198 0.0 0.0 0.00 0.00 0.00 46 1012.0
20260831063304 83 167 0.0 0.0 0.00 0.00 0.00 50 1012.0
20260831062804 82 207 0.0 0.0 0.00 0.00 0.00 50 1012.0
20260831062306 82 192 0.0 0.0 0.00 0.00 0.00 50 1011.9
20260831061804 82 143 0.0 0.0 0.00 0.00 0.00 50 1011.9
20260831061305 81 225 0.0 0.0 0.00 0.00 0.00 53 1011.8
20260831060804 80 225 0.0 0.0 0.00 0.00 0.00 54 1011.8
20260831060305 80 221 0.0 0.0 0.00 0.00 0.00 55 1011.7
20260831055804 79 155 0.0 0.0 0.00 0.00 0.00 55 1011.7
20260831055306 79 186 0.0 0.0 0.00 0.00 0.00 56 1011.6
20260831054804 79 186 0.0 0.0 0.00 0.00 0.00 56 1011.4
20260831053804 79 63 0.0 0.0 0.00 0.00 0.00 54 1011.4
20260831053304 79 62 0.0 0.0 0.00 0.00 0.00 52 1011.3
20260831052805 78 56 0.0 0.0 0.00 0.00 0.00 52 1011.2
20260831052307 78 53 0.0 0.0 0.00 0.00 0.00 53 1011.1
20260831051805 78 53 0.0 0.0 0.00 0.00 0.00 53 1011.1
20260831051304 78 56 0.0 0.0 0.00 0.00 0.00 54 1011.0
20260831050805 78 340 0.0 0.0 0.00 0.00 0.00 54 1011.1
20260831050304 78 335 0.0 0.0 0.00 0.00 0.00 55 1011.1
20260831045804 78 350 0.0 0.0 0.00 0.00 0.00 54 1011.0
20260831045306 78 352 0.0 0.0 0.00 0.00 0.00 54 1010.9
20260831044804 78 329 0.0 0.0 0.00 0.00 0.00 54 1010.9
20260831044305 78 332 0.0 0.0 0.00 0.00 0.00 54 1011.0
20260831043804 78 1 0.0 0.0 0.00 0.00 0.00 54 1010.9
20260831043304 78 7 0.0 0.0 0.00 0.00 0.00 53 1010.8
20260831042805 78 15 0.0 0.0 0.00 0.00 0.00 53 1010.7
20260831042307 79 59 0.0 0.0 0.00 0.00 0.00 53 1010.6
20260831041804 78 4 0.0 0.0 0.00 0.00 0.00 53 1010.6
20260831040805 79 9 0.0 0.0 0.00 0.00 0.00 52 1010.4
20260831040304 79 331 0.0 0.0 0.00 0.00 0.00 52 1010.3
20260831035306 78 14 0.0 0.0 0.00 0.00 0.00 52 1010.4
20260831034804 78 24 0.0 0.0 0.00 0.00 0.00 55 1010.4
20260831034304 78 77 0.0 0.0 0.00 0.00 0.00 57 1010.3
20260831033304 78 88 0.0 0.0 0.00 0.00 0.00 58 1010.3
20260831032306 78 63 0.0 0.0 0.00 0.00 0.00 58 1010.3
20260831031804 77 57 0.0 0.0 0.00 0.00 0.00 58 1010.4
20260831031304 77 11 0.0 0.0 0.00 0.00 0.00 59 1010.4
20260831025804 77 225 0.0 0.0 0.00 0.00 0.00 59 1010.5
20260831025306 77 226 0.0 0.0 0.00 0.00 0.00 59 1010.4
20260831023804 77 227 0.0 0.0 0.00 0.00 0.00 62 1010.4
20260831023304 77 121 0.0 0.0 0.00 0.00 0.00 63 1010.4
20260831022805 77 150 0.0 0.0 0.00 0.00 0.00 66 1010.6
20260831022306 77 213 0.0 0.0 0.00 0.00 0.00 66 1010.6
20260831021804 78 220 0.0 0.0 0.00 0.00 0.00 66 1010.6
20260831021304 78 159 0.0 0.0 0.00 0.00 0.00 66 1010.7
20260831020804 78 101 0.0 0.0 0.00 0.00 0.00 66 1010.7
20260831020304 77 34 0.0 0.0 0.00 0.00 0.00 67 1010.7
20260831015804 77 40 0.0 0.0 0.00 0.00 0.00 69 1010.7
20260831014804 77 343 0.0 0.0 0.00 0.00 0.00 74 1010.9
20260831014303 78 5 0.0 0.0 0.00 0.00 0.00 74 1011.0
20260831013804 78 341 0.0 0.0 0.00 0.00 0.00 72 1011.1
20260831013304 78 69 0.0 0.0 0.00 0.00 0.00 70 1011.2
20260831012804 78 104 0.0 0.0 0.00 0.00 0.00 72 1011.2
20260831012306 77 355 0.0 0.0 0.00 0.00 0.00 74 1011.3
20260831011804 77 1 0.0 0.0 0.00 0.00 0.00 76 1011.4
20260831011304 77 51 0.0 0.0 0.00 0.00 0.00 77 1011.5
20260831010805 77 216 0.0 0.0 0.00 0.00 0.00 77 1011.4
20260831010303 77 32 0.0 0.0 0.00 0.00 0.00 77 1011.4
20260831005806 77 55 0.0 0.0 0.00 0.00 0.00 77 1011.5
20260831004806 77 93 0.0 0.0 0.00 0.00 0.00 77 1011.6
20260831004306 77 16 0.0 0.0 0.00 0.00 0.00 77 1011.6
20260831003306 77 89 0.0 0.0 0.00 0.00 0.00 78 1011.8
20260831002306 78 22 0.0 0.0 0.00 0.00 0.00 78 1011.9
20260831001806 78 66 0.0 0.0 0.00 0.00 0.00 78 1011.9
20260831001306 78 10 0.0 0.0 0.00 0.00 0.00 78 1011.9
20260831000806 78 24 0.0 0.0 0.00 0.00 0.00 78 1012.0
20260831000306 78 45 0.0 0.0 0.00 0.00 0.00 78 1012.0
20260830235306 78 14 0.0 0.0 0.00 0.00 0.00 78 1012.1
20260830234806 78 25 0.0 0.0 0.00 0.00 0.00 77 1012.1
20260830233806 78 110 0.0 0.0 0.00 0.00 0.00 77 1012.0
20260830233306 78 82 0.0 0.0 0.00 0.00 0.00 76 1011.8
20260830232806 79 19 0.0 0.0 0.00 0.00 0.00 76 1011.9
20260830232307 79 39 0.0 0.0 0.00 0.00 0.00 76 1011.8
20260830231806 79 40 0.0 0.0 0.00 0.00 0.00 75 1011.9
20260830231306 79 119 0.0 0.0 0.00 0.00 0.00 74 1012.0
20260830230807 80 14 0.0 0.0 0.00 0.00 0.00 74 1012.2
20260830230306 80 32 0.0 0.0 0.00 0.00 0.00 74 1012.3
20260830225306 80 96 0.0 0.0 0.00 0.00 0.00 73 1012.4
20260830224806 80 76 0.0 0.0 0.00 0.00 0.00 72 1012.4
20260830224306 80 114 0.0 0.0 0.00 0.00 0.00 70 1012.4
20260830223807 81 358 0.0 0.0 0.00 0.00 0.00 69 1012.4
20260830223306 81 145 0.0 0.0 0.00 0.00 0.00 68 1012.3
20260830222806 81 78 0.0 0.0 0.00 0.00 0.00 67 1012.1
20260830222306 81 29 0.0 0.0 0.00 0.00 0.00 67 1011.9
20260830221806 81 35 0.0 0.0 0.00 0.00 0.00 66 1011.9
20260830221306 81 109 0.0 0.0 0.00 0.00 0.00 66 1011.9
20260830220828 82 7 0.0 0.0 0.00 0.00 0.00 66 1011.8
20260830220306 82 32 0.0 0.0 0.00 0.00 0.00 65 1011.8
20260830215806 82 34 0.0 0.0 0.00 0.00 0.00 64 1011.9
20260830215306 82 32 0.0 0.0 0.00 0.00 0.00 64 1011.9
20260830214806 82 59 0.0 0.0 0.00 0.00 0.00 64 1011.9
20260830214306 82 55 0.0 0.0 0.00 0.00 0.00 65 1011.9
20260830213806 83 11 0.0 0.0 0.00 0.00 0.00 64 1011.8
20260830211805 83 31 0.0 0.0 0.00 0.00 0.00 63 1011.8
20260830211306 83 358 0.0 0.0 0.00 0.00 0.00 63 1011.8
20260830210306 83 67 0.0 0.0 0.00 0.00 0.00 63 1011.8
20260830205806 83 28 0.0 0.0 0.00 0.00 0.00 62 1011.8
20260830205306 84 35 0.0 0.0 0.00 0.00 0.00 61 1011.8
20260830204805 84 32 0.0 0.0 0.00 0.00 0.00 60 1011.8
20260830204306 84 43 0.0 0.0 0.00 0.00 0.00 59 1011.8
20260830203805 84 20 0.0 0.0 0.00 0.00 0.00 58 1011.8
20260830203305 84 44 0.0 0.0 0.00 0.00 0.00 57 1011.7
20260830202806 84 355 0.0 0.0 0.00 0.00 0.00 57 1011.7
20260830202307 85 348 0.0 0.0 0.00 0.00 0.00 56 1011.7
20260830201806 85 17 0.0 0.0 0.00 0.00 0.00 56 1011.6
20260830200806 85 71 0.0 0.0 0.00 0.00 0.00 55 1011.6
20260830200305 85 50 0.0 0.0 0.00 0.00 0.00 55 1011.6
20260830195806 85 62 0.0 0.0 0.00 0.00 0.00 54 1011.6
20260830195305 85 205 0.0 0.0 0.00 0.00 0.00 54 1011.6
20260830194306 85 224 0.0 0.0 0.00 0.00 0.00 53 1011.5